Flag for U.S.A. Weather past 2 weeks in Miami, Florida, U.S.A.

Now
86 °F

Partly sunny.


Feels Like: 97 °F
Forecast: 81 / 89 °F
Wind: 5 mph from North

Location: Miami International Airport

Current Time: Aug 21, 2014 at 10:44:36 AM

Latest Report: Aug 21, 2014 at 9:53 AM


Visibility: 10 mi

Pressure: 30.12 "Hg

Humidity: 75%

Dew point: 77 °F

Location of MiamiLocation

Historic Weather in Miami — Graph

°F

Miami temperature yesterday

Maximum temperature yesterday: 91 °F (at 10:53 AM)
Minimum temperature yesterday: 81 °F (at 3:53 AM)
Average temperature yesterday: 85 °F

Past Weeks' High & Low Weather Summary

 TemperatureHumidityPressure
High94 °F (Aug 19, 3:53 PM)96% (Aug 7, 10:53 PM)30.12 "Hg (Aug 7, 10:53 PM)
Low75 °F (Aug 7, 10:53 PM)48% (Aug 19, 3:53 PM)29.96 "Hg (Aug 7, 5:53 PM)
Average84 °F73%30.04 "Hg
* Reported Aug 6 8:53 AM — Aug 21 8:53 AM, Miami, Weather by CustomWeather, © 2014

Note: Actual official high and low records may vary slightly from our data, if they occured in-between our weather recording intervals... More about our weather records

Advertising

Miami weather history for previous 24 hours

 ConditionsComfort  
Time TempWeatherWind HumidityBarometerVisibility
8:53 AM
Aug 21
85 °FScattered clouds.No wind77%30.11 "Hg10 mi
7:53 AM84 °FPassing clouds.5 mph83%30.09 "Hg10 mi
6:53 AM82 °FPassing clouds.No wind82%30.08 "Hg10 mi
5:53 AM82 °FPassing clouds.3 mph82%30.07 "Hg10 mi
4:53 AM81 °FClear.No wind85%30.06 "Hg10 mi
3:53 AM82 °FPassing clouds.No wind85%30.07 "Hg10 mi
2:53 AM82 °FPassing clouds.No wind82%30.08 "Hg10 mi
1:53 AM82 °FPassing clouds.No wind79%30.09 "Hg10 mi
12:53 AM83 °FPassing clouds.No wind77%30.09 "Hg10 mi
11:53 PM
Aug 20
84 °FPassing clouds.6 mph74%30.10 "Hg10 mi
10:53 PM84 °FPassing clouds.3 mph74%30.10 "Hg10 mi
9:53 PM85 °FPassing clouds.7 mph72%30.09 "Hg10 mi
8:53 PM85 °FPassing clouds.5 mph72%30.09 "Hg10 mi
7:53 PM85 °FBroken clouds.8 mph72%30.07 "Hg10 mi
6:53 PM87 °FBroken clouds.9 mph67%30.05 "Hg10 mi
5:53 PM88 °FBroken clouds.8 mph67%30.05 "Hg10 mi
4:53 PM89 °FPartly sunny.7 mph63%30.06 "Hg10 mi
3:53 PM90 °FBroken clouds.7 mph63%30.06 "Hg10 mi
2:53 PM86 °FBroken clouds.5 mph72%30.06 "Hg10 mi
1:53 PM81 °FStrong thunderstorms. Partly sunny.15 mph77%30.07 "Hg7 mi
12:53 PM91 °FBroken clouds.9 mph57%30.07 "Hg10 mi
11:53 AM91 °FBroken clouds.5 mph57%30.09 "Hg10 mi
10:53 AM91 °FBroken clouds.No wind60%30.10 "Hg10 mi
Weather by CustomWeather, © 2014

See weather overviewHow to use our weather pages